EW7633 Weather Reports


time (UTC)temp
C
wind
direction
speed
KPH
gust
KPH
rain 1hr
cm
rain 24hr
cm
rain mn
cm
humidity
%
barometer
mb
20260504174533 26 322 11.3 22.5 0.00 0.00 0.00 24 1002.9
20260504173032 26 279 9.7 32.2 0.00 0.00 0.00 27 1002.9
20260504171528 26 320 6.4 22.5 0.00 0.00 0.00 26 1003.3
20260504081505 13 192 1.6 3.2 0.00 0.00 0.00 50 1004.8
20260504044534 15 163 0.0 3.2 0.00 0.00 0.00 49 1008.1
20260504043037 15 163 0.0 4.8 0.00 0.00 0.00 50 1008.3
20260504041522 15 209 0.0 3.2 0.00 0.00 0.00 49 1008.4
20260504040023 15 273 0.0 3.2 0.00 0.00 0.00 50 1008.6
20260504034520 15 294 0.0 3.2 0.00 0.00 0.00 52 1008.9
20260504033018 15 294 0.0 1.6 0.00 0.00 0.00 50 1009.0
20260504031519 15 264 1.6 3.2 0.00 0.00 0.00 50 1008.9
20260504030017 16 5 0.0 1.6 0.00 0.00 0.00 50 1009.0
20260504024517 16 42 0.0 0.0 0.00 0.00 0.00 50 1008.9
20260504023016 17 42 0.0 3.2 0.00 0.00 0.00 48 1009.0
20260504021515 17 42 0.0 0.0 0.00 0.00 0.00 47 1009.2
20260504020014 19 42 0.0 0.0 0.00 0.00 0.00 40 1009.2
20260504014514 20 42 0.0 3.2 0.00 0.00 0.00 36 1009.3
20260504013018 20 29 1.6 4.8 0.00 0.00 0.00 36 1009.2
20260504011512 20 71 0.0 3.2 0.00 0.00 0.00 35 1009.3
20260504010010 21 54 0.0 3.2 0.00 0.00 0.00 33 1009.4
20260504004516 21 54 1.6 3.2 0.00 0.00 0.00 33 1009.6
20260504003007 22 74 0.0 3.2 0.00 0.00 0.00 32 1009.7
20260504001507 22 62 0.0 3.2 0.00 0.00 0.00 31 1009.9
20260504000004 22 76 1.6 4.8 0.00 0.00 0.00 30 1010.1
20260503234503 23 346 3.2 6.4 0.00 0.00 0.00 30 1010.3
20260503233002 23 342 3.2 8.0 0.00 0.00 0.00 31 1010.3
20260503231502 23 327 3.2 8.0 0.00 0.00 0.00 30 1010.5
20260503230001 23 24 1.6 11.3 0.00 0.00 0.00 30 1010.5
20260503224604 23 36 6.4 16.1 0.00 0.00 0.00 29 1010.2
20260503224501 23 69 3.2 9.7 0.00 0.00 0.00 29 1010.3
20260503223109 23 36 4.8 9.7 0.00 0.00 0.00 29 1010.5
20260503221601 23 17 1.6 9.7 0.00 0.00 0.00 29 1010.6
20260503220057 23 331 4.8 14.5 0.00 0.00 0.00 28 1010.8
20260503214555 23 84 3.2 19.3 0.00 0.00 0.00 29 1010.8
20260503213102 23 19 3.2 9.7 0.00 0.00 0.00 29 1010.9
20260503211610 23 28 6.4 12.9 0.00 0.00 0.00 28 1011.1
20260503210050 23 26 8.0 17.7 0.00 0.00 0.00 28 1011.4
20260503204548 23 5 3.2 14.5 0.00 0.00 0.00 27 1011.7
20260503203049 23 38 6.4 16.1 0.00 0.00 0.00 28 1012.0
20260503201544 23 36 3.2 14.5 0.00 0.00 0.00 27 1012.0
20260503200054 23 348 6.4 16.1 0.00 0.00 0.00 29 1012.2
20260503194538 23 300 3.2 17.7 0.00 0.00 0.00 29 1012.4
20260503193040 22 325 4.8 14.5 0.00 0.00 0.00 29 1012.6
20260503191542 22 355 9.7 19.3 0.00 0.00 0.00 31 1012.7
20260503190035 22 304 4.8 12.9 0.00 0.00 0.00 32 1012.8
20260503184542 22 14 8.0 20.9 0.00 0.00 0.00 31 1013.1
20260503183040 22 39 9.7 22.5 0.00 0.00 0.00 31 1013.0
20260503181543 22 82 8.0 24.1 0.00 0.00 0.00 32 1013.1
20260503180047 22 40 8.0 16.1 0.00 0.00 0.00 33 1013.3